Temperature
18 18 18 18 17 17 17 17 17 16 16 15 14 14 13 13 13 12 12 12 12 12 11 11 11 11 10 10 9 9 8 8 7 7 7 8 8 8 8 8 8 8 7
16 17 17 17 16 16 16 16 16 15 15 15 14 13 13 13 12 12 12 11 11 11 11 11 10 10 9 9 8 7 7 6 6 5 5 5 6 6 6 6 6 6 6
17 16 16 16 15 15 15 15 14 14 14 14 13 13 13 12 12 11 11 11 11 11 11 10 10 9 8 7 7 6 6 5 5 4 3 3 2 2 4 3 4 4 4
16 16 15 15 14 14 14 13 13 13 13 13 13 13 13 12 12 11 11 11 11 10 10 9 9 8 7 6 5 5 5 4 4 4 3 2 1 0 0 1 3 3 2
16 15 14 14 14 13 13 13 13 13 13 13 13 13 12 12 12 11 11 10 10 9 9 9 8 7 6 5 5 4 4 4 3 3 2 2 1 -0 -2 -2 -1 -0 1
14 14 13 13 12 12 12 12 12 12 12 12 12 12 12 12 11 11 10 10 9 9 8 8 7 6 5 4 4 4 3 3 2 2 1 1 -1 -1 -2 -3 -3 -3 -3
12 12 12 12 12 11 12 12 12 12 12 12 12 12 12 11 11 10 9 9 8 8 8 7 6 5 4 4 3 3 3 2 2 1 1 -0 -1 -2 -2 -3 -4 -4 -4
11 11 12 11 11 11 11 12 12 12 11 11 11 11 11 10 10 9 9 8 8 7 7 6 5 4 3 3 3 2 2 2 1 1 0 -1 -1 -2 -3 -4 -5 -5 -5
9 10 11 11 11 11 11 12 12 12 11 11 11 10 10 9 9 8 8 7 7 7 6 5 4 3 3 3 2 2 1 1 1 0 -1 -2 -2 -3 -3 -4 -5 -6 -6
8 9 10 10 10 11 11 11 11 12 11 10 10 10 9 9 8 8 7 7 6 6 5 4 3 3 2 2 1 1 0 0 -0 -1 -2 -3 -3 -3 -3 -4 -5 -6 -7
8 9 9 10 10 10 11 11 11 11 10 10 9 9 9 8 7 7 6 6 5 5 4 3 3 2 2 1 1 -0 -1 -1 -2 -2 -3 -4 -4 -4 -5 -5 -6 -7 -7
8 9 9 9 10 10 10 10 10 10 10 9 9 8 8 7 6 6 6 5 5 4 3 2 2 1 1 0 -0 -1 -2 -2 -3 -3 -4 -5 -5 -5 -6 -6 -7 -7 -7
8 9 9 9 10 10 10 10 10 9 9 8 8 7 7 6 6 5 5 4 4 3 2 2 1 1 0 -0 -1 -2 -3 -3 -4 -5 -5 -6 -6 -7 -7 -7 -8 -8 -8
8 9 9 9 9 10 10 9 9 8 8 7 7 6 6 5 5 5 4 3 3 2 2 1 0 -0 -1 -1 -1 -2 -3 -4 -5 -5 -6 -7 -7 -7 -8 -8 -8 -8 -8
7 9 9 9 9 9 9 8 8 7 7 6 6 5 5 5 4 4 3 2 2 1 1 0 -0 -1 -1 -2 -2 -4 -4 -5 -6 -6 -7 -7 -8 -8 -8 -8 -8 -8 -8
8 8 9 9 9 9 8 8 7 6 6 6 5 5 4 4 3 3 2 2 1 1 0 -0 -1 -1 -2 -2 -3 -5 -5 -6 -6 -7 -7 -8 -8 -9 -8 -9 -9 -8 -8
8 9 10 10 9 9 8 7 6 6 5 5 4 4 4 3 3 2 1 1 1 0 -0 -1 -2 -2 -2 -3 -4 -5 -6 -6 -7 -7 -8 -8 -9 -9 -9 -9 -9 -9 -9
9 9 10 9 9 8 7 7 6 5 4 4 4 3 3 2 2 1 1 0 -0 -1 -1 -2 -3 -3 -4 -4 -5 -6 -7 -7 -8 -8 -9 -9 -9 -9 -9 -9 -9 -9 -9
11 10 10 10 9 8 7 6 5 4 4 3 3 3 2 1 1 0 -0 -1 -1 -1 -2 -3 -3 -4 -5 -5 -7 -8 -8 -8 -8 -8 -9 -9 -9 -9 -9 -9 -9 -9 -10
11 10 10 9 8 7 6 5 4 4 3 3 2 2 1 1 0 -0 -1 -1 -2 -2 -3 -3 -4 -5 -6 -7 -8 -8 -9 -9 -8 -9 -9 -9 -10 -9 -9 -9 -10 -10 -10
10 10 9 8 7 6 5 4 4 3 3 2 2 1 0 0 -0 -1 -1 -2 -2 -3 -3 -3 -4 -5 -6 -7 -8 -9 -9 -9 -9 -9 -9 -10 -10 -9 -9 -10 -11 -11 -10
9 9 8 7 6 5 4 4 3 2 2 1 1 0 -0 -1 -1 -2 -2 -3 -3 -3 -3 -4 -5 -6 -7 -8 -9 -9 -9 -9 -9 -10 -10 -10 -10 -10 -10 -11 -11 -11 -11
8 7 7 5 4 4 3 3 2 2 1 1 0 -0 -1 -1 -2 -2 -3 -3 -3 -4 -4 -6 -7 -8 -8 -9 -9 -9 -9 -9 -10 -10 -10 -10 -11 -11 -11 -11 -11 -11 -11
6 6 5 4 3 2 2 2 1 1 0 -0 -1 -1 -1 -2 -2 -3 -3 -3 -4 -5 -6 -8 -8 -9 -9 -9 -9 -9 -10 -10 -10 -10 -10 -11 -11 -11 -11 -11 -11 -11 -12
5 5 4 3 2 1 1 1 0 -0 -0 -1 -1 -2 -2 -2 -3 -3 -3 -4 -5 -6 -8 -9 -9 -9 -9 -9 -10 -10 -10 -10 -10 -11 -11 -11 -11 -11 -11 -11 -11 -12 -12
4 3 3 2 1 1 0 -0 -1 -1 -1 -1 -2 -2 -3 -3 -3 -3 -4 -4 -6 -6 -7 -8 -9 -9 -10 -10 -10 -10 -10 -11 -11 -11 -12 -12 -12 -13 -13 -12 -12 -12 -11
Wind_Speed
6 6 6 7 7 7 8 9 12 12 13 11 9 9 8 7 8 9 12 14 14 14 11 6 6 6 6 6 6 4 5 4 5 4 5 6 5 4 5 7 6 7 11
7 7 6 5 6 8 9 10 11 10 10 9 8 6 7 7 7 6 10 14 14 13 10 7 6 6 5 7 7 6 4 3 4 3 3 5 6 5 8 6 5 7 7
16 11 8 7 8 9 10 11 11 12 13 13 13 12 8 6 5 6 6 8 12 13 11 8 6 6 6 5 5 5 4 3 3 3 2 3 4 5 4 4 4 7 7
13 12 11 10 9 9 10 12 12 13 12 13 14 14 9 7 5 5 6 6 10 11 11 9 7 5 5 5 4 4 3 3 3 3 2 1 4 4 6 5 5 7 8
18 16 13 11 10 10 11 11 12 12 10 10 11 12 10 8 7 7 8 7 6 8 9 8 6 5 4 4 4 4 4 3 3 3 3 3 3 5 5 9 7 8 7
16 13 10 11 11 10 11 11 13 11 10 11 11 12 13 12 10 8 7 5 4 5 6 6 5 4 3 4 4 4 5 4 4 4 3 3 3 5 5 9 13 11 7
20 18 16 15 14 13 12 12 14 12 11 12 11 11 12 11 10 9 7 5 3 2 3 3 3 3 3 4 4 4 5 4 5 5 4 4 4 5 7 11 16 17 10
19 19 18 16 15 14 13 14 14 13 12 13 11 10 10 8 7 8 6 5 3 2 2 3 3 4 5 5 4 4 4 4 5 7 6 4 5 5 6 9 14 17 11
19 18 15 14 15 14 13 14 15 13 12 12 11 10 10 9 8 7 6 4 3 2 3 3 4 4 5 5 5 4 6 6 5 6 5 4 5 6 7 7 8 11 18
17 17 15 14 12 12 11 11 13 14 12 11 10 10 9 9 8 7 6 5 3 3 3 4 4 5 5 5 5 6 7 6 6 4 6 6 6 7 7 7 8 9 14
20 18 15 13 13 12 12 12 12 12 11 10 10 10 8 8 7 6 5 4 3 3 4 4 5 6 6 6 6 7 8 7 7 6 7 8 8 8 8 8 9 9 11
17 16 15 14 14 13 12 12 11 11 10 10 10 9 8 8 7 6 4 4 3 3 4 5 6 7 7 7 8 9 9 8 8 8 8 8 10 10 10 9 10 11 11
16 14 15 15 14 13 12 11 11 11 10 10 9 9 8 7 6 5 4 3 3 4 5 5 6 7 8 8 8 8 8 8 8 8 8 9 10 12 11 12 13 12 13
18 16 15 13 13 12 12 12 10 10 11 10 9 8 7 6 5 4 3 3 3 4 6 6 7 7 8 9 8 8 9 9 8 8 8 9 10 12 13 13 12 13 14
18 18 17 14 13 12 12 12 11 10 11 10 9 7 6 6 5 3 2 3 4 5 6 6 7 8 8 9 11 9 9 9 9 8 8 10 16 21 18 17 15 16 16
19 18 17 16 16 15 14 13 11 10 10 10 8 7 6 5 4 2 3 4 5 5 6 7 7 8 10 17 21 17 10 9 9 9 9 11 15 20 26 29 28 26 21
18 19 18 17 15 15 15 14 11 11 10 9 8 6 6 4 3 2 3 4 5 5 6 7 8 8 11 20 21 22 13 9 9 10 11 14 16 20 14 22 27 24 28
16 15 14 13 12 12 14 13 12 11 10 8 7 6 5 4 2 3 3 4 4 5 5 7 8 8 11 20 21 23 11 9 10 10 11 12 13 16 21 19 18 16 15
11 12 12 13 14 15 15 15 12 10 9 8 7 5 4 3 2 3 4 4 4 6 6 7 8 8 11 18 21 22 10 10 11 10 10 14 13 25 31 22 19 16 14
12 13 14 15 15 14 15 15 12 10 9 7 6 5 4 2 1 3 4 3 4 6 7 7 8 8 9 16 21 22 8 10 11 9 10 18 23 28 30 19 14 16 18
15 15 16 14 14 14 14 13 11 9 8 7 6 5 3 1 2 3 3 5 6 6 7 8 8 8 11 16 20 22 11 11 13 13 11 12 27 29 28 24 14 21 22
15 15 15 13 11 12 14 12 9 8 7 7 5 4 2 2 3 4 5 5 6 7 7 7 8 7 9 13 17 22 21 19 12 13 12 15 27 28 27 20 22 27 22
13 13 16 14 10 9 12 12 8 7 7 6 5 3 3 3 3 4 5 5 5 5 6 6 7 7 6 9 19 22 23 23 15 12 21 24 25 24 18 22 26 21 13
13 13 14 13 9 8 9 9 8 7 7 6 4 3 3 3 4 4 4 5 5 6 7 7 8 8 7 7 8 8 11 17 15 12 15 21 21 19 19 19 16 12 12
10 10 12 12 10 9 9 8 7 7 7 5 3 2 2 3 4 4 4 5 5 7 9 6 6 9 9 13 23 18 13 13 14 15 7 9 11 11 12 13 12 12 13
10 11 11 11 9 9 8 7 6 7 6 3 2 1 2 3 4 4 5 9 10 15 16 16 15 13 17 24 25 25 25 25 24 16 11 12 12 13 14 14 15 14 14
Wind_Direction
209 187 162 138 120 114 117 121 126 130 127 124 117 111 101 94 85 78 77 77 75 72 70 66 54 50 54 43 28 13 6 353 349 342 319 314 328 347 334 350 355 2 3
192 188 161 139 131 126 120 121 124 123 122 118 113 110 111 97 86 78 70 70 70 68 70 65 61 52 52 41 33 27 10 344 2 348 323 332 331 341 332 318 341 357 350
186 180 162 146 134 131 131 129 124 120 120 119 116 114 102 88 76 74 71 65 72 70 68 65 63 54 52 40 26 27 26 343 327 349 35 0 312 310 298 316 343 336 320
178 169 159 150 143 135 127 126 125 123 124 125 131 132 130 123 118 112 97 76 71 70 66 64 60 52 46 34 11 22 2 348 334 332 22 246 251 293 309 306 306 304 308
174 167 160 150 138 131 126 125 122 119 115 114 121 119 115 115 117 108 98 81 65 63 63 60 54 42 31 19 7 358 353 344 326 320 310 295 269 240 266 295 303 305 295
163 152 141 135 128 123 121 122 120 114 113 112 112 121 125 127 124 117 109 92 73 54 48 53 46 33 16 359 350 345 343 335 329 319 310 307 302 306 292 299 306 302 292
158 154 150 145 140 134 128 124 123 119 116 114 112 118 122 123 125 125 120 114 94 67 39 41 31 14 351 345 347 343 333 328 329 315 302 295 288 296 304 309 309 307 300
161 159 155 149 145 139 133 130 127 124 121 118 116 113 113 112 113 114 117 118 121 121 67 40 20 2 353 349 346 334 321 323 317 317 310 302 300 302 303 305 310 311 304
159 156 151 148 146 142 139 135 132 127 124 122 118 112 110 110 111 111 108 109 109 101 56 29 8 353 346 339 334 316 305 304 300 299 299 300 295 297 294 295 298 303 307
153 152 152 149 143 138 132 128 130 130 127 123 122 119 113 113 114 112 110 108 93 62 35 11 356 344 334 324 315 303 296 296 296 291 297 298 298 299 296 294 293 289 293
158 156 153 147 140 135 134 131 130 129 127 121 116 116 115 115 113 112 113 109 84 47 18 354 341 330 319 312 305 298 297 295 293 293 300 296 301 304 304 298 294 290 289
152 152 150 146 145 145 142 138 136 133 130 125 119 117 117 116 114 113 108 94 63 23 355 338 328 320 314 307 301 298 304 295 290 288 291 296 311 307 304 300 295 293 287
149 149 152 154 154 152 148 143 140 135 130 125 120 118 119 119 119 115 99 70 34 357 339 331 323 316 311 306 299 292 291 286 283 283 285 292 302 304 303 299 296 294 295
157 157 158 158 156 152 149 146 139 136 133 127 124 125 129 128 125 114 86 42 7 344 335 330 322 316 312 304 298 297 294 290 284 279 278 285 294 298 300 301 296 301 302
164 165 164 160 155 150 146 144 139 135 134 129 127 131 132 127 118 100 55 13 355 345 336 331 326 323 319 317 321 315 309 303 296 287 282 289 305 309 309 308 309 307 303
172 170 166 162 160 156 151 144 138 135 132 130 131 132 129 124 115 84 31 5 350 341 340 334 325 323 331 330 332 332 320 313 309 306 302 300 305 307 313 312 308 307 307
173 172 170 167 162 155 149 144 139 133 130 129 131 133 132 128 107 54 19 354 339 336 331 325 320 315 320 335 335 333 335 329 318 309 307 311 313 315 302 302 308 307 305
169 165 159 150 142 136 136 132 132 132 131 131 135 137 134 122 83 32 356 331 321 325 317 310 309 311 322 336 335 334 339 318 306 300 298 299 303 308 311 310 310 306 305
148 145 140 136 133 135 136 132 130 130 131 136 141 140 131 116 54 354 330 318 317 315 305 302 305 309 315 329 331 331 314 308 303 297 298 308 307 309 315 318 316 316 311
119 123 123 126 129 133 134 132 133 133 138 142 138 130 120 104 4 326 316 310 307 298 301 302 303 302 302 318 328 328 311 310 310 306 300 313 317 316 322 324 323 319 314
112 118 121 125 131 132 129 129 131 136 137 130 123 114 98 51 336 331 316 309 306 305 306 304 304 301 306 321 328 328 328 318 319 320 318 315 320 324 328 329 322 314 321
108 115 116 116 119 125 126 126 131 132 125 120 113 98 61 12 2 344 319 311 311 313 313 312 310 299 300 317 324 328 328 329 323 319 317 318 325 329 330 328 321 325 330
108 112 116 114 108 113 125 130 135 130 120 112 101 74 35 11 357 335 319 317 319 318 315 311 310 311 303 310 324 327 331 332 328 316 321 326 329 330 328 323 326 330 324
111 115 116 117 113 109 111 123 129 122 115 107 87 55 23 353 341 327 316 317 317 313 309 311 317 315 312 305 308 316 323 329 326 319 324 329 328 328 326 326 325 323 318
112 114 120 122 121 116 113 116 116 112 108 100 76 37 359 330 321 321 317 322 299 305 321 315 310 321 321 322 332 335 330 332 327 333 328 326 328 328 326 325 324 324 324
117 115 116 120 121 118 114 110 108 111 112 102 67 351 319 313 315 319 320 328 329 327 328 329 329 324 323 327 333 333 335 337 337 338 330 327 326 324 324 323 323 323 322
Height
1457 1459 1459 1460 1460 1461 1462 1464 1467 1470 1473 1476 1480 1484 1488 1491 1493 1495 1497 1498 1499 1499 1499 1499 1498 1496 1493 1490 1487 1484 1481 1478 1474 1470 1465 1464 1463 1460 1459 1459 1457 1454 1451
1454 1454 1455 1456 1457 1458 1459 1461 1464 1467 1471 1475 1479 1484 1487 1490 1492 1494 1496 1497 1498 1498 1498 1497 1495 1493 1490 1487 1484 1481 1478 1475 1471 1467 1462 1458 1456 1455 1455 1452 1450 1448 1445
1447 1449 1450 1452 1454 1456 1457 1460 1463 1467 1471 1475 1479 1482 1485 1488 1491 1493 1494 1495 1496 1496 1496 1494 1493 1490 1487 1484 1481 1478 1476 1473 1470 1467 1464 1460 1454 1448 1444 1444 1442 1440 1437
1440 1443 1446 1448 1451 1454 1457 1460 1463 1467 1471 1474 1477 1480 1483 1486 1489 1491 1493 1494 1494 1494 1493 1492 1490 1488 1485 1482 1480 1477 1474 1471 1467 1465 1462 1461 1456 1451 1441 1436 1434 1432 1429
1433 1437 1441 1445 1449 1452 1455 1459 1463 1466 1470 1473 1477 1480 1483 1485 1488 1490 1492 1493 1493 1492 1491 1490 1488 1485 1483 1480 1478 1475 1472 1468 1465 1462 1458 1455 1452 1449 1443 1432 1426 1424 1422
1427 1433 1438 1443 1446 1450 1455 1458 1462 1465 1469 1473 1476 1480 1482 1484 1486 1489 1490 1491 1491 1490 1489 1487 1485 1483 1480 1478 1475 1472 1469 1465 1462 1458 1455 1451 1448 1443 1438 1429 1420 1415 1412
1421 1427 1433 1438 1443 1448 1452 1457 1461 1464 1468 1472 1476 1479 1482 1484 1486 1487 1489 1489 1489 1488 1486 1484 1482 1480 1477 1474 1472 1468 1465 1461 1458 1454 1450 1447 1444 1440 1434 1426 1415 1407 1402
1416 1422 1429 1435 1440 1445 1450 1455 1460 1463 1468 1471 1475 1478 1481 1483 1485 1486 1487 1487 1486 1485 1483 1481 1479 1477 1474 1471 1468 1465 1461 1457 1453 1449 1445 1442 1438 1434 1429 1422 1413 1400 1391
1412 1419 1426 1433 1438 1444 1449 1454 1459 1463 1467 1471 1474 1477 1480 1482 1483 1484 1485 1485 1484 1482 1480 1478 1476 1474 1471 1467 1464 1460 1456 1452 1448 1444 1439 1435 1431 1426 1422 1417 1412 1405 1390
1411 1418 1425 1432 1438 1444 1449 1455 1459 1463 1466 1470 1474 1476 1478 1480 1482 1483 1483 1482 1481 1479 1478 1476 1473 1470 1467 1463 1459 1455 1451 1447 1442 1438 1433 1429 1424 1419 1414 1409 1405 1401 1393
1409 1416 1424 1431 1438 1444 1449 1454 1459 1462 1466 1469 1472 1475 1477 1479 1480 1480 1480 1480 1478 1477 1475 1472 1470 1467 1463 1459 1454 1450 1445 1441 1436 1432 1427 1422 1417 1412 1407 1402 1398 1394 1389
1409 1416 1423 1430 1437 1442 1447 1452 1457 1461 1465 1468 1471 1473 1475 1477 1478 1478 1478 1477 1476 1474 1471 1469 1466 1462 1458 1454 1449 1444 1440 1435 1430 1426 1421 1416 1411 1406 1401 1396 1390 1386 1382
1410 1417 1423 1429 1435 1440 1446 1451 1456 1460 1463 1467 1469 1472 1474 1475 1476 1476 1475 1474 1473 1471 1468 1465 1462 1458 1453 1449 1444 1439 1434 1430 1425 1421 1416 1411 1405 1399 1394 1389 1384 1379 1374
1409 1415 1421 1427 1433 1439 1444 1449 1454 1458 1462 1465 1468 1470 1472 1473 1474 1473 1473 1471 1470 1467 1465 1461 1458 1453 1448 1443 1438 1433 1428 1424 1420 1416 1411 1406 1400 1394 1388 1383 1378 1373 1367
1408 1413 1419 1425 1431 1437 1442 1448 1452 1456 1460 1464 1467 1469 1470 1471 1471 1471 1470 1468 1466 1464 1461 1457 1453 1448 1443 1438 1433 1428 1423 1419 1414 1410 1405 1400 1395 1390 1385 1379 1373 1366 1359
1405 1411 1417 1423 1428 1434 1440 1445 1450 1455 1459 1463 1465 1467 1469 1469 1469 1468 1467 1465 1463 1460 1457 1452 1448 1443 1438 1433 1428 1423 1418 1413 1408 1403 1398 1394 1388 1383 1378 1373 1366 1361 1354
1402 1407 1413 1419 1426 1432 1438 1444 1449 1454 1458 1461 1464 1465 1466 1467 1466 1465 1464 1462 1459 1456 1452 1448 1443 1438 1433 1428 1423 1418 1413 1408 1403 1398 1392 1387 1382 1377 1369 1362 1357 1352 1347
1400 1406 1413 1419 1426 1432 1438 1444 1449 1453 1457 1460 1462 1464 1464 1464 1463 1462 1461 1458 1455 1452 1448 1443 1438 1433 1428 1423 1418 1413 1407 1402 1397 1393 1387 1381 1374 1369 1363 1356 1349 1342 1336
1401 1407 1413 1419 1426 1432 1438 1443 1448 1452 1456 1458 1460 1462 1462 1462 1461 1459 1457 1455 1451 1448 1444 1439 1434 1429 1424 1418 1413 1408 1401 1396 1391 1387 1382 1376 1370 1363 1357 1350 1341 1334 1327
1403 1408 1414 1421 1427 1432 1438 1443 1447 1451 1454 1457 1459 1459 1459 1459 1458 1456 1454 1451 1447 1443 1439 1435 1430 1424 1419 1414 1409 1404 1398 1391 1384 1379 1375 1370 1364 1357 1351 1344 1335 1327 1319
1405 1410 1416 1422 1427 1433 1438 1442 1447 1450 1454 1456 1457 1457 1457 1456 1455 1453 1450 1447 1443 1439 1434 1430 1425 1420 1415 1409 1405 1400 1395 1389 1381 1375 1368 1362 1357 1351 1345 1338 1330 1323 1316
1407 1413 1418 1423 1429 1434 1439 1443 1447 1450 1452 1454 1455 1455 1455 1454 1452 1450 1446 1443 1438 1433 1428 1423 1419 1415 1410 1406 1400 1397 1392 1386 1379 1371 1364 1357 1351 1345 1338 1331 1324 1319 1311
1411 1416 1421 1425 1431 1436 1440 1443 1447 1449 1451 1452 1453 1453 1452 1451 1449 1446 1442 1438 1433 1428 1423 1418 1413 1409 1405 1401 1396 1392 1387 1381 1374 1367 1360 1353 1346 1338 1331 1325 1320 1313 1305
1415 1419 1423 1427 1432 1437 1442 1444 1447 1448 1450 1450 1451 1451 1450 1448 1445 1442 1438 1433 1429 1424 1419 1414 1409 1404 1400 1395 1391 1386 1380 1374 1368 1360 1353 1347 1340 1333 1327 1321 1314 1308 1302
1418 1422 1426 1430 1434 1438 1442 1444 1446 1447 1448 1449 1449 1448 1447 1444 1441 1438 1434 1429 1425 1421 1417 1412 1407 1401 1395 1391 1388 1382 1375 1369 1362 1355 1348 1341 1334 1328 1322 1316 1310 1304 1298
1421 1424 1428 1432 1436 1439 1442 1444 1445 1447 1447 1447 1447 1445 1443 1440 1437 1434 1430 1426 1423 1418 1414 1409 1404 1398 1393 1387 1382 1377 1371 1364 1358 1351 1344 1337 1332 1326 1320 1313 1307 1301 1295